Terminal Aerodrome Forecast
Issued by NWS Portland, OR

Home | Current Version | Previous Version | Text Only | Print | Product List | Glossary On
Versions: 1 2 3 4 5 6 7 8 9 10 11 12 13 14 15 16 17 18 19 20 21
000
FTUS46 KPQR 212332
TAFHIO
TAF
KHIO 212332Z 2200/2224 30004KT P6SM SCT150 BKN250
     FM220200 VRB02KT P6SM VCSH BKN040 OVC100
     FM220400 14005KT 4SM -SN SCT015 OVC030
     FM220600 14005KT 1/2SM SN BKN006 OVC015
     FM221100 06005KT 4SM -SN SCT006 BKN012 OVC025
     FM221400 04005KT P6SM SCT015 BKN025 BKN100
     FM221700 04005KT P6SM SCT025 BKN100
     FM222100 36007KT P6SM SCT250=

USA.gov is the U.S. government's official web portal to all federal, state and local government web resources and services.